| time (UTC) | temp C | wind direction | speed KPH | gust KPH | rain 1hr cm | rain 24hr cm | rain mn cm | humidity % | barometer mb |
| 20260901110059 | 20 | 194 | 0.0 | 0.0 | 0.00 | 0.48 | 0.00 | 78 | 1019.8 |
| 20260901104557 | 20 | 194 | 0.0 | 0.0 | 0.00 | 0.48 | 0.00 | 77 | 1019.9 |
| 20260901103104 | 20 | 193 | 0.0 | 0.0 | 0.00 | 0.48 | 0.00 | 76 | 1019.7 |
| 20260901101554 | 20 | 194 | 0.0 | 0.0 | 0.00 | 0.48 | 0.00 | 74 | 1019.7 |
| 20260901100055 | 20 | 196 | 0.0 | 0.0 | 0.00 | 0.48 | 0.00 | 75 | 1019.8 |
| 20260901094551 | 20 | 196 | 0.0 | 0.0 | 0.00 | 0.48 | 0.00 | 75 | 1019.9 |
| 20260901093049 | 20 | 196 | 0.0 | 0.0 | 0.00 | 0.48 | 0.00 | 75 | 1020.0 |
| 20260901091553 | 20 | 196 | 0.0 | 0.0 | 0.00 | 0.48 | 0.00 | 77 | 1019.9 |
| 20260901090042 | -17 | 0.0 | 0.0 | 0.00 | 0.56 | 0.00 | 1019.7 | ||
| 20260901084538 | -17 | 0.0 | 0.0 | 0.00 | 0.56 | 0.00 | 1019.8 | ||
| 20260901083034 | -17 | 0.0 | 0.0 | 0.00 | 0.56 | 0.00 | 1019.9 | ||
| 20260901081537 | -17 | 0.0 | 0.0 | 0.00 | 0.56 | 0.00 | 1019.8 | ||
| 20260901080028 | -17 | 0.0 | 0.0 | 0.00 | 0.56 | 0.00 | 1019.6 | ||
| 20260901074520 | -17 | 0.0 | 0.0 | 0.00 | 0.56 | 0.00 | 1019.5 | ||
| 20260901073018 | -17 | 0.0 | 0.0 | 0.00 | 0.56 | 0.00 | 1019.4 | ||
| 20260901071512 | -17 | 0.0 | 0.0 | 0.00 | 0.56 | 0.00 | 1019.4 | ||
| 20260901070007 | -17 | 0.0 | 0.0 | 0.00 | 0.56 | 0.00 | 1019.4 | ||
| 20260901064502 | -17 | 0.0 | 0.0 | 0.00 | 0.56 | 0.00 | 1019.5 | ||
| 20260901063059 | -17 | 0.0 | 0.0 | 0.00 | 0.56 | 0.00 | 1019.4 | ||
| 20260901061554 | -17 | 0.0 | 0.0 | 0.00 | 0.56 | 0.00 | 1019.4 | ||
| 20260901060051 | 15 | 197 | 0.0 | 0.0 | 0.00 | 0.56 | 0.00 | 77 | 1019.2 |
| 20260901054551 | 15 | 197 | 0.0 | 0.0 | 0.00 | 0.56 | 0.00 | 77 | 1019.1 |
| 20260901053052 | 15 | 197 | 0.0 | 0.0 | 0.00 | 0.56 | 0.00 | 77 | 1018.9 |
| 20260901051545 | 15 | 197 | 0.0 | 0.0 | 0.00 | 0.56 | 0.00 | 77 | 1018.8 |
| 20260901050044 | 15 | 197 | 0.0 | 0.0 | 0.00 | 0.56 | 0.00 | 77 | 1018.6 |
| 20260901044542 | 15 | 197 | 0.0 | 0.0 | 0.00 | 0.56 | 0.00 | 76 | 1018.6 |
| 20260901043041 | 15 | 197 | 0.0 | 0.0 | 0.00 | 0.56 | 0.00 | 76 | 1018.4 |
| 20260901041544 | 14 | 197 | 0.0 | 0.0 | 0.00 | 0.56 | 0.00 | 76 | 1018.3 |
| 20260901040047 | 14 | 197 | 0.0 | 0.0 | 0.00 | 0.56 | 0.00 | 76 | 1018.2 |
| 20260901034537 | 14 | 197 | 0.0 | 0.0 | 0.00 | 0.56 | 0.00 | 76 | 1018.2 |
| 20260901033037 | 14 | 197 | 0.0 | 0.0 | 0.00 | 0.56 | 0.00 | 76 | 1018.2 |
| 20260901031536 | 14 | 197 | 0.0 | 0.0 | 0.00 | 0.56 | 0.00 | 76 | 1018.1 |
| 20260901030035 | 14 | 197 | 0.0 | 0.0 | 0.00 | 0.79 | 0.00 | 76 | 1018.2 |
| 20260901024535 | 13 | 198 | 0.0 | 0.0 | 0.00 | 0.79 | 0.00 | 76 | 1018.2 |
| 20260901023033 | 13 | 198 | 0.0 | 0.0 | 0.00 | 0.79 | 0.00 | 76 | 1018.1 |
| 20260901021533 | 13 | 198 | 0.0 | 0.0 | 0.00 | 0.79 | 0.00 | 76 | 1017.9 |
| 20260901020030 | 13 | 198 | 0.0 | 0.0 | 0.00 | 0.79 | 0.00 | 76 | 1017.9 |
| 20260901014529 | 13 | 198 | 0.0 | 0.0 | 0.00 | 0.79 | 0.00 | 76 | 1017.8 |
| 20260901013040 | 13 | 198 | 0.0 | 0.0 | 0.00 | 0.79 | 0.00 | 77 | 1017.7 |
| 20260901011535 | 13 | 198 | 0.0 | 0.0 | 0.00 | 0.79 | 0.00 | 77 | 1017.7 |
| 20260901010024 | 14 | 198 | 0.0 | 0.0 | 0.00 | 0.79 | 0.00 | 77 | 1017.7 |
| 20260901004522 | 14 | 198 | 0.0 | 0.0 | 0.00 | 0.79 | 0.00 | 77 | 1017.6 |
| 20260901003020 | 14 | 198 | 0.0 | 0.0 | 0.00 | 0.79 | 0.00 | 77 | 1017.6 |
| 20260901001518 | 15 | 198 | 0.0 | 0.0 | 0.00 | 0.79 | 0.00 | 77 | 1017.5 |
| 20260901000017 | 15 | 198 | 0.0 | 0.0 | 0.00 | 0.79 | 0.00 | 77 | 1017.6 |
| 20260831234515 | 15 | 198 | 0.0 | 0.0 | 0.00 | 0.79 | 0.00 | 77 | 1017.5 |
| 20260831233014 | 15 | 198 | 0.0 | 0.0 | 0.00 | 0.79 | 0.00 | 77 | 1017.4 |
| 20260831231514 | 15 | 198 | 0.0 | 0.0 | 0.00 | 0.79 | 0.00 | 77 | 1017.5 |
| 20260831230017 | 15 | 198 | 0.0 | 0.0 | 0.00 | 0.79 | 0.00 | 78 | 1017.5 |
| 20260831224510 | 15 | 198 | 0.0 | 0.0 | 0.00 | 0.79 | 0.00 | 77 | 1017.5 |
| 20260831223007 | 15 | 198 | 0.0 | 0.0 | 0.00 | 0.79 | 0.00 | 77 | 1017.5 |
| 20260831221506 | 15 | 198 | 0.0 | 0.0 | 0.00 | 0.79 | 0.00 | 78 | 1017.4 |
| 20260831220006 | 15 | 198 | 0.0 | 0.0 | 0.00 | 0.79 | 0.79 | 78 | 1017.3 |
| 20260831214508 | 15 | 198 | 0.0 | 0.0 | 0.00 | 0.79 | 0.79 | 78 | 1017.2 |
| 20260831213001 | 15 | 198 | 0.0 | 0.0 | 0.00 | 0.79 | 0.79 | 79 | 1017.1 |
| 20260831211600 | 15 | 198 | 0.0 | 0.0 | 0.00 | 0.79 | 0.79 | 79 | 1017.0 |
| 20260831210057 | 15 | 198 | 0.0 | 0.0 | 0.00 | 0.79 | 0.79 | 79 | 1016.8 |
| 20260831204604 | 16 | 198 | 0.0 | 0.0 | 0.00 | 0.79 | 0.79 | 79 | 1016.7 |
| 20260831203126 | 16 | 198 | 0.0 | 0.0 | 0.00 | 0.79 | 0.79 | 80 | 1016.7 |
| 20260831201604 | 16 | 198 | 0.0 | 0.0 | 0.00 | 0.79 | 0.79 | 80 | 1016.4 |
| 20260831200135 | 16 | 198 | 0.0 | 0.0 | 0.00 | 0.79 | 0.79 | 80 | 1016.2 |
| 20260831194556 | 16 | 198 | 0.0 | 0.0 | 0.00 | 0.79 | 0.79 | 80 | 1016.0 |
| 20260831193049 | 17 | 198 | 0.0 | 0.0 | 0.00 | 0.79 | 0.79 | 80 | 1015.8 |
| 20260831191548 | 17 | 198 | 0.0 | 0.0 | 0.00 | 0.79 | 0.79 | 80 | 1015.6 |
| 20260831190044 | 17 | 198 | 0.0 | 0.0 | 0.00 | 0.79 | 0.79 | 79 | 1015.2 |
| 20260831184546 | 17 | 198 | 0.0 | 0.0 | 0.00 | 0.79 | 0.79 | 78 | 1015.1 |
| 20260831183040 | 18 | 198 | 0.0 | 0.0 | 0.00 | 0.79 | 0.79 | 77 | 1014.9 |
| 20260831181548 | 18 | 190 | 0.0 | 0.0 | 0.00 | 0.79 | 0.79 | 77 | 1014.6 |
| 20260831180037 | 18 | 208 | 0.0 | 0.0 | 0.00 | 0.79 | 0.79 | 76 | 1014.2 |
| 20260831174540 | 18 | 200 | 0.0 | 0.0 | 0.00 | 0.79 | 0.79 | 76 | 1014.1 |
| 20260831173034 | 19 | 208 | 0.0 | 0.0 | 0.00 | 0.79 | 0.79 | 75 | 1014.0 |
| 20260831171532 | 19 | 198 | 0.0 | 9.7 | 0.00 | 0.79 | 0.79 | 75 | 1013.9 |
| 20260831170037 | 19 | 219 | 0.0 | 14.5 | 0.00 | 0.79 | 0.79 | 75 | 1013.7 |
| 20260831164529 | 19 | 200 | 0.0 | 0.0 | 0.00 | 0.79 | 0.79 | 75 | 1013.5 |
| 20260831163028 | 18 | 213 | 0.0 | 0.0 | 0.00 | 0.79 | 0.79 | 77 | 1013.5 |
| 20260831161526 | 18 | 198 | 0.0 | 14.5 | 0.00 | 0.79 | 0.79 | 77 | 1013.2 |
| 20260831160026 | 18 | 221 | 0.0 | 0.0 | 0.00 | 0.79 | 0.79 | 78 | 1013.0 |
| 20260831154524 | 18 | 196 | 0.0 | 0.0 | 0.00 | 0.79 | 0.79 | 77 | 1013.0 |
| 20260831153023 | 18 | 197 | 0.0 | 0.0 | 0.00 | 0.79 | 0.79 | 79 | 1012.9 |
| 20260831151522 | 18 | 202 | 0.0 | 0.0 | 0.00 | 0.79 | 0.79 | 79 | 1012.7 |
| 20260831150021 | 17 | 197 | 0.0 | 0.0 | 0.10 | 0.79 | 0.79 | 78 | 1012.6 |
| 20260831144520 | 17 | 191 | 0.0 | 0.0 | 0.46 | 0.79 | 0.79 | 76 | 1012.2 |
| 20260831143020 | 16 | 201 | 0.0 | 0.0 | 0.46 | 0.79 | 0.79 | 76 | 1012.0 |
| 20260831141519 | 16 | 201 | 0.0 | 14.5 | 0.46 | 0.79 | 0.79 | 78 | 1012.3 |
| 20260831140031 | 17 | 199 | 0.0 | 0.0 | 0.36 | 0.69 | 0.69 | 78 | 1012.3 |
| 20260831134514 | 20 | 147 | 0.0 | 0.0 | 0.00 | 0.33 | 0.33 | 69 | 1011.2 |
| 20260831133014 | 21 | 132 | 0.0 | 0.0 | 0.00 | 0.33 | 0.33 | 65 | 1011.3 |
| 20260831131514 | 21 | 198 | 0.0 | 0.0 | 0.00 | 0.33 | 0.33 | 59 | 1011.4 |
| 20260831130013 | 21 | 244 | 0.0 | 0.0 | 0.03 | 0.33 | 0.33 | 60 | 1010.9 |
| 20260831124511 | 21 | 115 | 0.0 | 0.0 | 0.03 | 0.33 | 0.33 | 62 | 1010.9 |
| 20260831123010 | 21 | 196 | 0.0 | 3.2 | 0.03 | 0.33 | 0.33 | 64 | 1011.1 |
| 20260831121510 | 21 | 219 | 0.0 | 0.0 | 0.03 | 0.33 | 0.33 | 70 | 1011.1 |
| 20260831120015 | 22 | 232 | 0.0 | 0.0 | 0.00 | 0.30 | 0.30 | 61 | 1011.0 |
| 20260831114506 | 21 | 205 | 0.0 | 0.0 | 0.00 | 0.30 | 0.30 | 67 | 1011.0 |
| 20260831113003 | 21 | 252 | 0.0 | 0.0 | 0.00 | 0.30 | 0.30 | 67 | 1011.2 |
| 20260831111501 | 21 | 246 | 0.0 | 0.0 | 0.00 | 0.30 | 0.30 | 73 | 1011.3 |